Regional Weather Roundup
Issued by NWS San Diego, CA

Home | Current Version | Previous Version | Text Only | Print | Product List | Glossary On
Versions: 1 2 3 4 5 6 7 8 9 10 11 12 13 14 15 16 17 18 19 20 21 22 23 24 25 26 27 28 29 30 31 32 33 34 35 36 37 38 39 40 41 42 43 44 45 46 47 48 49 50
000
ASUS46 KSGX 300511
RWRSGX

SAN DIEGO HOURLY WEATHER ROUNDUP
NATIONAL WEATHER SERVICE SAN DIEGO CA
1000 PM PDT MON JUN 29 2015

NOTE: "FAIR" INDICATES FEW OR NO CLOUDS BELOW 12,000 FEET WITH NO
SIGNIFICANT WEATHER AND/OR OBSTRUCTIONS TO VISIBILITY.

CAZ042-043-060-061-PZZ750-775-300600-

GREATER SAN DIEGO AREA

CITY           SKY/WX    TMP DP  RH WIND       PRES   REMARKS
LINDBERGH FLD  PTCLDY    69  62  78 CALM      29.93R
POINT LOMA       N/A     65  62  90 NW6         N/A
CHULA VISTA      N/A     68  65  90 CALM      29.84R
IMPERIAL BEACH MOCLDY    66  63  90 CALM      29.91R
BROWN FIELD    CLEAR     66  63  90 CALM      29.92R
MIRAMAR MCAS   PTCLDY    70  61  73 NW5       29.92R
MONTGOMERY FLD CLEAR     69  62  78 CALM      29.92R

$$

NORTH SAN DIEGO COUNTY

CITY           SKY/WX    TMP DP  RH WIND       PRES   REMARKS
CAMP PENDLETON PTCLDY    67  62  84 CALM      29.91R
OCEANSIDE AP   CLEAR     68  63  84 CALM      29.90R
VISTA            N/A     68  62  83 CALM      29.89R
CARLSBAD       CLEAR     68  63  84 CALM      29.91R
DEL MAR          N/A     65  63  91 CALM      29.93R
FALLBROOK        N/A     68  66  94 CALM      29.90R
SAN MARCOS       N/A     68  63  84 CALM      29.89R
POWAY            N/A     68  63  82 CALM      29.92R

$$

EAST SAN DIEGO COUNTY

CITY           SKY/WX    TMP DP  RH WIND       PRES   REMARKS
RAMONA         CLEAR     69  61  75 NW6       29.94R
SANTEE LAKES     N/A     69  63  81 CALM      29.90R
LA MESA          N/A     68  63  84 CALM      29.66R
JAMUL            N/A     68  63  85 CALM      29.89R
DESCANSO N       N/A     71  56  58 CALM      29.74R
CAMPO            N/A     72  62  71 NE6       29.97R

$$

ORANGE COUNTY AND THE LOS ANGELES BASIN

CITY           SKY/WX    TMP DP  RH WIND       PRES   REMARKS
JOHN WAYNE AP  PTCLDY    69  63  81 SW5       29.90R
LAKE FOREST FR   N/A     72  59  62 CALM      29.78R
SANTA ANA        N/A     71  63  75 CALM      29.86R
LOS ALAMITOS   FAIR      67  65  92 S2        29.90R
FULLERTON      CLEAR     72  60  66 CALM      29.90R
LONG BEACH     PTCLDY    71  63  75 S3        29.90R
L.A. AP        PTCLDY    68  58  70 W7        29.91R
L.A. DOWNTOWN  CLEAR     70  57  63 CALM      29.89R

$$

THE INLAND EMPIRE

CITY           SKY/WX    TMP DP  RH WIND       PRES   REMARKS
CORONA         PTCLDY    74  60  61 CALM      29.91R
CHINO          CLEAR     75  58  55 W5        29.92R
ONTARIO        PTCLDY    77  57  50 W6        29.91R
RIVERSIDE AP   CLEAR     78  58  49 W5        29.92R
MORENO VALLEY    N/A     80  60  50 N1        29.89R
MARCH ARB      CLEAR     78  55  44 NW6       29.94R
HORSETHIEF CYN   N/A     77  56  48 W5        29.85R
PERRIS           N/A     81  53  38 NW5         N/A
MENIFEE          N/A     80  60  49 CALM      29.97R
HEMET EAST       N/A     82  51  34 CALM      29.87S
FRENCH VALLEY  FAIR      75  57  53 CALM      29.94R
TEMECULA         N/A     75  60  60 CALM      29.88R

$$

SAN BERNARDINO AND RIVERSIDE COUNTY MOUNTAINS

CITY           SKY/WX    TMP DP  RH WIND       PRES   REMARKS
BIG BEAR AP    PTCLDY    61  45  55 CALM      30.33R
PINE COVE        N/A     69  53  56 CALM      29.84S

$$

SOUTHERN DESERT INCLUDING THE COACHELLA VALLEY

CITY           SKY/WX    TMP DP  RH WIND       PRES   REMARKS
PALM SPRINGS   CLEAR    101  54  20 NW8       29.80R HX  99
THOUSAND PALMS   N/A     98  54  22 NW8       29.77R HX  95
PALM DESERT      N/A     98  58  25 CALM        N/A  HX  98
THERMAL        CLEAR     93  64  38 N6        29.74R
BLYTHE         MOCLDY   102  61  25 SW10      29.77R HX 103
IMPERIAL AP    CLEAR     97  64  33 SE9       29.75R HX  99
EL CENTRO NAS  PTCLDY    94  64  37 S9        29.77R HX  95
YUMA AZ        MOCLDY    94  67  41 S8        29.80R HX  97
MEXICALI       PTCLDY    90  64  43 SE12      29.78R

$$

UPPER DESERT

CITY           SKY/WX    TMP DP  RH WIND       PRES   REMARKS
VICTORVILLE AP CLEAR     86  46  25 CALM      30.01R
HESPERIA         N/A     83  54  35 NW2       29.93R
APPLE VALLEY     N/A     88  47  24 CALM      30.04S
PALMDALE       PTCLDY    84  42  22 W9        29.99R
LANCASTER      PTCLDY    84  44  24 W8        29.98R
EDWARDS AFB    MOCLDY    87  46  23 SW12      29.94R
DAGGETT        PTCLDY    95  49  20 SW17      29.90R
29 PALMS N     PTCLDY    93  52  24 SW12      29.97R
NEEDLES        CLOUDY   108  50  14 W12       29.77R HX 105

$$

REGIONAL REPORTS

CITY           SKY/WX    TMP DP  RH WIND       PRES   REMARKS
SANTA BARBARA  CLEAR     64  59  83 SE5       29.88R
SANDBERG       CLEAR     79  48  33 NW3       30.16R
LAS VEGAS NV   MOCLDY   102  49  16 S7        29.82R HX  99
PHOENIX AZ     CLOUDY    98  59  27 NW14      29.82R THUNDER HX  98
TIJUANA        CLEAR     66  59  77 CALM      29.93R
ENSENADA NW      N/A     67  32  27 CALM      29.88S

$$

OFFSHORE ISLANDS

CITY           SKY/WX    TMP DP  RH WIND       PRES   REMARKS
CATALINA ARPT  PTCLDY    76  47  35 SE5       29.97R
SAN NICOLAS IS PTCLDY   N/A N/A N/A W15       29.92R

$$

MARINE AND OFFSHORE BUOY REPORTS

STATION/POSITION SKY/WX   TEMP    WIND        PRES    SWELL
                          AIR SEA DIR/SP/G            HT/PER/DIR
                          (F)     (DEG/KT/KT) (MB)    (FT/S/D)
TANNER BANKS               60 62  330/ 14/ 16 1014.0R   5/310/ 7
S CLEMENTE BASIN           64 67  290/ 10/ 14 1012.3R   5/280/ 7
SAN NICOLAS IS.               62                N/A     2/180/15
SO. S. ROSA ISLA           59 60  310/ 19/ 23 1011.9R   2/ 9
W. S. BARBARA CH           58 57  310/ 21/ 25 1011.0R   2/300/ 9
M. S. BARBARA CH           60 64  230/ 12/ 16 1012.5R
S. MONICA BASIN            66 67  240/  4/  6 1012.2R   3/260/ 7
S PEDRO CHANNEL               66                N/A     2/160/15
DANA POINT                    67                N/A     2/200/14
OCEANSIDE OFFSHR              71                N/A     2/220/18
TORREY PINES OTR              70                N/A     2/210/13
LA JOLLA 1                 68 69  340/  3/  4 1012.2R
MISSION BAY BUOY              70                N/A     2/210/14
SAN DIEGO BAY                 70              1012.8R
POINT LOMA SOUTH              70                N/A     2/190/15

$$



USA.gov is the U.S. government's official web portal to all federal, state and local government web resources and services.